CW3007 Weather Reports


Display with metric or nautical units.
time (UTC)temp
F
wind
direction
speed
MPH
gust
MPH
rain 1hr
in
rain 24hr
in
rain mn
in
humidity
%
barometer
mb
20260901052029 85 161 5.0 10.0 0.00 0.00 0.00 64 1013.5
20260901051030 86 159 5.0 10.0 0.00 0.00 0.00 64 1013.4
20260901045030 86 175 7.0 9.0 0.00 0.00 0.00 63 1013.3
20260901041030 87 144 2.0 10.0 0.00 0.00 0.00 60 1013.0
20260901040030 88 144 4.0 13.0 0.00 0.00 0.00 59 1013.1
20260901035030 88 134 3.0 11.0 0.00 0.00 0.00 58 1013.1
20260901034029 88 168 6.0 13.0 0.00 0.00 0.00 56 1013.0
20260901033029 89 173 5.0 14.0 0.00 0.00 0.00 55 1013.0
20260901032030 89 181 4.0 11.0 0.00 0.00 0.00 53 1012.9
20260901031030 89 169 4.0 13.0 0.00 0.00 0.00 52 1012.8
20260901030029 89 165 5.0 12.0 0.00 0.00 0.00 50 1012.7
20260901025030 89 143 5.0 8.0 0.00 0.00 0.00 48 1012.5
20260901024030 89 123 3.0 7.0 0.00 0.00 0.00 45 1012.3
20260901023029 89 123 2.0 4.0 0.00 0.00 0.00 44 1012.1
20260901022030 90 138 0.0 2.0 0.00 0.00 0.00 43 1012.0
20260901021029 90 123 0.0 1.0 0.00 0.00 0.00 42 1011.9
20260901020030 90 132 0.0 2.0 0.00 0.00 0.00 42 1011.7
20260901015029 91 107 0.0 2.0 0.00 0.00 0.00 41 1011.6
20260901013030 92 130 0.0 2.0 0.00 0.00 0.00 40 1011.5
20260901012030 92 105 0.0 3.0 0.00 0.00 0.00 40 1011.4
20260901011029 93 104 0.0 3.0 0.00 0.00 0.00 39 1011.3
20260901010030 94 109 2.0 7.0 0.00 0.00 0.00 38 1011.2
20260901005030 95 107 3.0 7.0 0.00 0.00 0.00 37 1011.2
20260901004029 95 135 3.0 9.0 0.00 0.00 0.00 36 1011.2
20260901002029 96 82 2.0 9.0 0.00 0.00 0.00 36 1011.2
20260901001029 97 101 3.0 10.0 0.00 0.00 0.00 35 1011.1
20260831235030 97 80 3.0 10.0 0.00 0.00 0.00 34 1011.0
20260831234029 98 106 8.0 10.0 0.00 0.00 0.00 34 1011.1
20260831233030 98 98 9.0 11.0 0.00 0.00 0.00 33 1011.0
20260831232029 98 111 4.0 9.0 0.00 0.00 0.00 34 1011.0
20260831231029 98 124 2.0 10.0 0.00 0.00 0.00 35 1011.0
20260831230029 98 92 4.0 12.0 0.00 0.00 0.00 36 1011.1
20260831224029 98 82 4.0 9.0 0.00 0.00 0.00 35 1011.2
20260831223029 98 81 7.0 12.0 0.00 0.00 0.00 35 1011.2
20260831222029 98 91 6.0 11.0 0.00 0.00 0.00 35 1011.4
20260831221029 98 93 7.0 11.0 0.00 0.00 0.00 35 1011.3
20260831220029 99 141 5.0 12.0 0.00 0.00 0.00 34 1011.3
20260831215029 99 143 9.0 10.0 0.00 0.00 0.00 33 1011.5
20260831214029 99 49 6.0 11.0 0.00 0.00 0.00 34 1011.7
20260831213029 99 343 1.0 12.0 0.00 0.00 0.00 34 1011.7
20260831212029 98 97 7.0 11.0 0.00 0.00 0.00 35 1011.9
20260831211029 98 179 5.0 8.0 0.00 0.00 0.00 36 1012.0
20260831210029 97 167 4.0 10.0 0.00 0.00 0.00 38 1012.1
20260831204029 96 25 4.0 12.0 0.00 0.00 0.00 41 1012.6
20260831203029 96 92 2.0 9.0 0.00 0.00 0.00 42 1012.8
20260831202029 96 102 4.0 11.0 0.00 0.00 0.00 41 1013.0
20260831201029 96 81 3.0 10.0 0.00 0.00 0.00 43 1013.1
20260831200029 98 159 7.0 14.0 0.00 0.00 0.00 41 1013.2
20260831195029 97 192 6.0 13.0 0.00 0.00 0.00 39 1013.3
20260831194029 97 82 0.0 11.0 0.00 0.00 0.00 41 1013.5
20260831193029 97 172 5.0 14.0 0.00 0.00 0.00 39 1013.6
20260831192029 97 87 9.0 10.0 0.00 0.00 0.00 43 1013.8
20260831191029 97 129 13.0 13.0 0.00 0.00 0.00 42 1013.9
20260831185029 95 147 5.0 13.0 0.00 0.00 0.00 43 1014.1
20260831184029 95 172 0.0 10.0 0.00 0.00 0.00 46 1014.1
20260831182029 95 202 4.0 11.0 0.00 0.00 0.00 46 1014.3
20260831181029 94 146 0.0 10.0 0.00 0.00 0.00 48 1014.5
20260831180029 94 109 7.0 10.0 0.00 0.00 0.00 48 1014.5
20260831174029 93 93 2.0 12.0 0.00 0.00 0.00 51 1014.9
20260831173029 93 173 9.0 12.0 0.00 0.00 0.00 52 1015.1
20260831171029 92 123 10.0 15.0 0.00 0.00 0.00 50 1015.2
20260831170029 92 130 7.0 13.0 0.00 0.00 0.00 54 1015.3
20260831165029 91 89 2.0 9.0 0.00 0.00 0.00 55 1015.5
20260831164029 91 109 7.0 12.0 0.00 0.00 0.00 57 1015.4
20260831163029 91 175 6.0 8.0 0.00 0.00 0.00 56 1015.3
20260831162029 90 178 1.0 8.0 0.00 0.00 0.00 56 1015.4
20260831161029 90 181 7.0 12.0 0.00 0.00 0.00 58 1015.4
20260831160029 89 171 6.0 11.0 0.00 0.00 0.00 59 1015.3
20260831155029 89 141 5.0 12.0 0.00 0.00 0.00 60 1015.4
20260831154029 89 112 9.0 9.0 0.00 0.00 0.00 62 1015.3
20260831153029 88 173 8.0 11.0 0.00 0.00 0.00 63 1015.3
20260831151029 87 180 4.0 7.0 0.00 0.00 0.00 69 1015.1
20260831150029 86 247 1.0 7.0 0.00 0.00 0.00 71 1015.1
20260831145029 84 221 4.0 8.0 0.00 0.00 0.00 72 1015.0
20260831142029 83 227 1.0 9.0 0.00 0.00 0.00 76 1015.0
20260831141029 82 232 5.0 11.0 0.00 0.00 0.00 77 1014.9
20260831140029 82 236 5.0 10.0 0.00 0.00 0.00 78 1014.8
20260831135029 82 219 11.0 11.0 0.00 0.00 0.00 78 1014.7
20260831134029 82 254 7.0 9.0 0.00 0.00 0.00 79 1014.7
20260831133029 82 246 4.0 5.0 0.00 0.00 0.00 81 1014.6
20260831132029 81 184 4.0 6.0 0.00 0.00 0.00 82 1014.4
20260831131029 81 180 2.0 5.0 0.00 0.00 0.00 83 1014.3
20260831130029 80 169 1.0 3.0 0.00 0.00 0.00 84 1014.2
20260831125029 80 169 0.0 3.0 0.00 0.00 0.00 84 1014.1
20260831122029 79 158 0.0 2.0 0.00 0.00 0.00 83 1013.9
20260831121029 79 165 0.0 4.0 0.00 0.00 0.00 83 1013.9
20260831115029 79 184 2.0 5.0 0.00 0.00 0.00 83 1013.8
20260831114029 80 157 3.0 5.0 0.00 0.00 0.00 82 1013.8
20260831111029 80 185 3.0 8.0 0.00 0.00 0.00 82 1013.7
20260831110029 80 175 3.0 8.0 0.00 0.00 0.00 82 1013.7
20260831105029 80 186 5.0 7.0 0.00 0.00 0.00 82 1013.7
20260831103029 80 207 6.0 10.0 0.00 0.00 0.00 81 1013.7
20260831102029 80 202 4.0 7.0 0.00 0.00 0.00 81 1013.7
20260831101028 80 185 7.0 9.0 0.00 0.00 0.00 82 1013.8
20260831100029 80 203 7.0 9.0 0.00 0.00 0.00 82 1013.8
20260831095028 80 182 3.0 7.0 0.00 0.00 0.00 82 1013.8
20260831094028 80 206 4.0 7.0 0.00 0.00 0.00 81 1013.7
20260831093028 80 223 2.0 6.0 0.00 0.00 0.00 81 1013.7
20260831091029 80 167 4.0 9.0 0.00 0.00 0.00 80 1013.5
20260831090029 80 192 5.0 8.0 0.00 0.00 0.00 80 1013.6
20260831085028 80 219 6.0 11.0 0.00 0.00 0.00 80 1013.6
20260831084028 80 173 3.0 6.0 0.00 0.00 0.00 79 1013.6
20260831083028 81 188 4.0 11.0 0.00 0.00 0.00 79 1013.6
20260831080029 81 171 4.0 9.0 0.00 0.00 0.00 76 1013.6
20260831075028 81 205 3.0 8.0 0.00 0.00 0.00 75 1013.6
20260831074029 81 169 2.0 10.0 0.00 0.00 0.00 74 1013.5
20260831073029 82 165 6.0 8.0 0.00 0.00 0.00 74 1013.6
20260831071028 82 157 8.0 11.0 0.00 0.00 0.00 73 1013.6
20260831070029 82 178 5.0 10.0 0.00 0.00 0.00 72 1013.6
20260831065028 83 193 4.0 9.0 0.00 0.00 0.00 71 1013.7
20260831062029 84 167 6.0 8.0 0.00 0.00 0.00 68 1013.7
20260831061029 84 190 5.0 9.0 0.00 0.00 0.00 67 1013.7
20260831060028 84 189 7.0 11.0 0.00 0.00 0.00 66 1013.6
20260831055028 85 156 7.0 10.0 0.00 0.00 0.00 65 1013.6
20260831054028 85 207 5.0 9.0 0.00 0.00 0.00 65 1013.6
20260831053028 85 172 9.0 10.0 0.00 0.00 0.00 64 1013.4